Change the Weather History Date:

Monday, October 7, 2013

  Actual Average (KHKY) Record (KHKY)
Temperature  
Mean Temperature 60 °F -  
Max Temperature 72 °F 71 °F 92 °F (1951)
Min Temperature 48 °F 49 °F 36 °F (1964)
Degree Days  
Heating Degree Days 4    
Growing Degree Days 10 (Base 50)    
Moisture  
Dew Point 59 °F    
Average Humidity 87    
Maximum Humidity 100    
Minimum Humidity 58    
Precipitation  
Precipitation 1.61 in - - ()
Sea Level Pressure  
Sea Level Pressure 29.96 in    
Wind  
Wind Speed 2 mph (North)    
Max Wind Speed 8 mph    
Max Gust Speed 18 mph    
Visibility 8 miles    
Events Rain    
Averages and records for this station are not official NWS values.
T = Trace of Precipitation, MM = Missing Value Source: NWS Daily Summary

Daily Weather History Graph

Daily Weather History Graph

Search for Another Location

Airport or City:

Trip Planner

Search our weather history database for the weather conditions in past years. The results will help you decide how hot, cold, wet, or windy it might be!

Date:

Astronomy

Oct. 07, 2013 Rise Set
Actual Time 7:26 AM EDT 7:01 PM EDT
Civil Twilight 7:00 AM EDT 7:26 PM EDT
Nautical Twilight 6:31 AM EDT 7:56 PM EDT
Astronomical Twilight 6:01 AM EDT 8:26 PM EDT
Moon 10:08 AM EDT (10/7) 8:51 PM EDT (10/7)
Length of Visible Light 12h 25m
Length of Day
11h 34m
Waxing Crescent, 8% of the Moon is Illuminated
Oct 7
Waxing Crescent
Oct 11
First Quarter
Oct 18
Full
Oct 26
Last Quarter
Nov 3
New

Hourly Weather History & Observations

Time (EDT) Temp. Dew Point Humidity Pressure Visibility Wind Dir Wind Speed Gust Speed Precip Events Conditions
12:15 AM 67.1 °F 64.4 °F 91% 29.96 in 10.0 mi Calm Calm - N/A   Overcast
12:35 AM 66.6 °F 63.5 °F 90% 29.95 in 10.0 mi Calm Calm - N/A   Overcast
12:55 AM 65.7 °F 63.9 °F 94% 29.95 in 10.0 mi Calm Calm - N/A   Mostly Cloudy
1:15 AM 66.0 °F 64.4 °F 94% 29.93 in 10.0 mi Calm Calm - N/A   Overcast
1:35 AM 65.7 °F 64.6 °F 96% 29.93 in 5.0 mi Calm Calm - 0.01 in Rain Rain
1:55 AM 65.5 °F 65.3 °F 99% 29.93 in 4.0 mi Calm Calm - 0.01 in Rain Light Rain
2:15 AM 66.2 °F 66.2 °F 100% 29.92 in 5.0 mi Calm Calm - N/A Rain Light Rain
2:35 AM 67.6 °F 67.5 °F 99% 29.91 in 10.0 mi Calm Calm - N/A Rain Light Rain
2:55 AM 68.0 °F 67.8 °F 99% 29.90 in 1.8 mi WNW 4.6 mph - 0.31 in Rain Heavy Rain
3:15 AM 65.1 °F 64.8 °F 99% 29.91 in 1.8 mi West 8.1 mph 18.4 mph 0.49 in Rain Heavy Rain
3:35 AM 64.0 °F 63.9 °F 99% 29.90 in 4.0 mi Calm Calm - 0.54 in Rain Heavy Rain
3:55 AM 63.9 °F 63.9 °F 100% 29.91 in 5.0 mi East 3.5 mph - 0.58 in Rain Heavy Rain
4:15 AM 63.9 °F 63.9 °F 100% 29.90 in 4.0 mi Calm Calm - 0.02 in Rain Rain
4:35 AM 63.9 °F 63.9 °F 100% 29.90 in 4.0 mi Calm Calm - 0.06 in Rain Heavy Rain
4:55 AM 63.9 °F 63.9 °F 100% 29.90 in 2.5 mi Calm Calm - 0.15 in Rain Heavy Rain
5:15 AM 63.7 °F 63.7 °F 100% 29.90 in 2.0 mi Calm Calm - 0.08 in Rain Heavy Rain
5:35 AM 63.7 °F 63.7 °F 100% 29.89 in 3.0 mi Calm Calm - 0.13 in Rain Heavy Rain
5:55 AM 63.9 °F 63.9 °F 100% 29.90 in 5.0 mi Calm Calm - 0.18 in Rain Rain
6:15 AM 63.9 °F 63.9 °F 100% 29.90 in 4.0 mi NW 3.5 mph - 0.09 in Rain Heavy Rain
6:35 AM 63.9 °F 63.9 °F 100% 29.91 in 2.0 mi Calm Calm - 0.30 in Rain Heavy Rain
6:55 AM 63.7 °F 63.7 °F 100% 29.90 in 5.0 mi Calm Calm - 0.32 in Rain Rain
7:15 AM 63.7 °F 63.7 °F 100% 29.90 in 2.5 mi Calm Calm - 0.05 in Rain Heavy Rain
7:35 AM 63.7 °F 63.7 °F 100% 29.90 in 5.0 mi Calm Calm - 0.06 in Rain Light Rain
7:55 AM 63.7 °F 63.7 °F 100% 29.90 in 4.0 mi Calm Calm - 0.06 in Rain Light Rain
8:15 AM 63.7 °F 63.7 °F 100% 29.89 in 3.0 mi East 4.6 mph - N/A Rain Light Rain
8:35 AM 63.9 °F 63.9 °F 100% 29.92 in 1.5 mi West 4.6 mph - N/A   Overcast
8:55 AM 64.2 °F 64.2 °F 100% 29.93 in 3.0 mi Calm Calm - N/A   Light Drizzle
9:15 AM 64.4 °F 64.4 °F 100% 29.94 in 4.0 mi Calm Calm - N/A Rain Light Rain
9:35 AM 64.9 °F 64.9 °F 100% 29.93 in 10.0 mi Calm Calm - N/A   Mostly Cloudy
9:55 AM 65.5 °F 65.5 °F 100% 29.94 in 10.0 mi Calm Calm - N/A   Mostly Cloudy
10:15 AM 66.0 °F 66.0 °F 100% 29.95 in 10.0 mi NW 3.5 mph - N/A   Overcast
10:35 AM 66.2 °F 66.2 °F 100% 29.94 in 10.0 mi North 3.5 mph - N/A   Overcast
10:55 AM 67.6 °F 66.2 °F 95% 29.95 in 10.0 mi NNW 3.5 mph - N/A   Overcast
11:15 AM 67.8 °F 65.7 °F 93% 29.94 in 10.0 mi North 5.8 mph - N/A   Overcast
11:35 AM 69.1 °F 63.5 °F 82% 29.94 in 10.0 mi NNW 3.5 mph - N/A   Mostly Cloudy
11:55 AM 70.0 °F 62.8 °F 78% 29.94 in 10.0 mi NNE 3.5 mph - N/A   Scattered Clouds
12:15 PM 71.8 °F 63.1 °F 74% 29.94 in 10.0 mi Calm Calm - N/A   Scattered Clouds
12:35 PM 71.8 °F 63.0 °F 74% 29.95 in 10.0 mi WNW 3.5 mph - N/A   Scattered Clouds
12:55 PM 72.7 °F 63.3 °F 72% 29.94 in 10.0 mi North 4.6 mph - N/A   Mostly Cloudy
1:15 PM 70.0 °F 59.7 °F 70% 29.95 in 10.0 mi North 4.6 mph - N/A   Overcast
1:35 PM 68.4 °F 59.2 °F 72% 29.95 in 10.0 mi North 4.6 mph - N/A   Overcast
1:55 PM 68.5 °F 58.3 °F 70% 29.95 in 10.0 mi North 6.9 mph - N/A   Overcast
2:15 PM 67.3 °F 57.2 °F 70% 29.95 in 10.0 mi North 6.9 mph - N/A   Overcast
2:35 PM 68.0 °F 57.2 °F 68% 29.95 in 10.0 mi North 4.6 mph - N/A   Overcast
2:55 PM 69.4 °F 57.0 °F 65% 29.95 in 10.0 mi North 5.8 mph - N/A   Overcast
3:15 PM 69.1 °F 55.2 °F 61% 29.95 in 10.0 mi North 6.9 mph - N/A   Overcast
3:35 PM 68.4 °F 53.6 °F 59% 29.96 in 10.0 mi North 8.1 mph - N/A   Overcast
3:55 PM 68.4 °F 52.9 °F 58% 29.96 in 10.0 mi North 8.1 mph - N/A   Mostly Cloudy
4:15 PM 68.4 °F 53.2 °F 58% 29.96 in 10.0 mi NNW 6.9 mph - N/A   Scattered Clouds
4:35 PM 67.3 °F 52.5 °F 59% 29.96 in 10.0 mi North 6.9 mph - N/A   Clear
4:55 PM 66.4 °F 51.6 °F 59% 29.97 in 10.0 mi North 8.1 mph - N/A   Clear
5:15 PM 65.7 °F 51.6 °F 60% 29.97 in 10.0 mi North 6.9 mph - N/A   Clear
5:35 PM 65.3 °F 50.7 °F 59% 29.97 in 10.0 mi North 6.9 mph - N/A   Clear
5:55 PM 64.9 °F 50.9 °F 60% 29.98 in 10.0 mi North 8.1 mph - N/A   Clear
6:15 PM 64.4 °F 50.9 °F 62% 29.98 in 10.0 mi NNW 6.9 mph - N/A   Clear
6:35 PM 64.4 °F 50.5 °F 61% 30.00 in 10.0 mi North 5.8 mph - N/A   Clear
6:55 PM 63.3 °F 50.9 °F 64% 30.00 in 10.0 mi NNE 5.8 mph - N/A   Clear
7:15 PM 61.7 °F 51.8 °F 70% 30.00 in 10.0 mi NNE 3.5 mph - N/A   Clear
7:35 PM 58.6 °F 53.6 °F 83% 30.00 in 10.0 mi North 4.6 mph - N/A   Clear
7:55 PM 60.6 °F 51.8 °F 73% 30.00 in 10.0 mi NNE 3.5 mph - N/A   Clear
8:15 PM 58.3 °F 53.1 °F 83% 30.01 in 10.0 mi North 4.6 mph - N/A   Clear
8:35 PM 57.7 °F 52.9 °F 84% 30.02 in 10.0 mi Calm Calm - N/A   Clear
8:55 PM 54.5 °F 53.2 °F 96% 30.03 in 10.0 mi Calm Calm - N/A   Clear
9:15 PM 52.7 °F 52.2 °F 98% 30.04 in 10.0 mi Calm Calm - N/A   Clear
9:35 PM 51.6 °F 51.4 °F 99% 30.05 in 10.0 mi Calm Calm - N/A   Clear
9:55 PM 51.8 °F 51.8 °F 100% 30.06 in 10.0 mi Calm Calm - N/A   Clear
10:15 PM 52.2 °F 51.8 °F 99% 30.07 in 10.0 mi Calm Calm - N/A   Clear
10:35 PM 50.5 °F 50.5 °F 100% 30.07 in 10.0 mi Calm Calm - N/A   Clear
10:55 PM 49.5 °F 49.5 °F 100% 30.08 in 10.0 mi Calm Calm - N/A   Clear
11:15 PM 49.5 °F 49.5 °F 100% 30.08 in 7.0 mi Calm Calm - N/A   Clear
11:35 PM 50.0 °F 50.0 °F 100% 30.08 in 10.0 mi Calm Calm - N/A   Clear
11:55 PM 48.0 °F 48.0 °F 100% 30.09 in 7.0 mi Calm Calm - N/A   Clear